Torna al catalogo

OPS 7613

P/L 1

AttivoNavigazioneLEO
NORAD 4256·PAYLOAD·🇺🇸 United States

Lanciato Sep 30, 1969 da Vandenberg Space Force Base

Loading…

Prossimi Passaggi (prossime 24 ore)

TLE

AggiornatoSource: Space-Track

Epoca: Sep 14, 2026, 09:09 UTC

1 04256U 69082B   26257.38151533  .00000088  00000-0  97543-4 0  9991
2 04256  70.0090 133.4029 0021737 304.4201  55.4851 13.99215240902949

Traccia OPS 7613 in tempo reale con AllMySat

Download on the App Store